Theta_e
320 320 320 320 320 320 320 321 322 324 324 325 323 322 326 328 328 333 334 346 346 346 347 347 346 344 343 343 343 342 342 342 346 346 345 343 342 339 337 335 334 334 333
321 319 319 321 321 320 319 321 322 322 322 322 321 322 326 327 329 333 334 340 346 345 346 346 346 345 343 343 342 341 342 343 345 344 342 341 339 336 335 335 334 334 333
321 321 319 320 322 321 320 320 322 323 323 322 321 321 325 328 331 333 334 335 341 344 344 346 345 344 343 344 342 341 341 344 344 342 340 339 338 337 335 334 334 333 332
323 321 320 320 322 321 319 319 320 320 323 322 320 322 324 328 330 332 333 334 332 339 342 343 344 343 342 343 341 341 342 343 342 340 338 337 336 336 334 333 332 332 331
326 322 321 321 321 319 318 319 319 319 320 320 320 321 324 326 329 333 335 334 333 333 333 342 341 341 341 340 341 341 343 342 340 339 337 336 335 335 334 333 331 330 329
325 324 321 321 321 318 318 318 318 321 320 320 324 321 322 326 330 331 334 335 333 334 333 334 336 337 337 339 339 342 344 341 338 336 337 336 335 334 333 332 331 329 328
325 323 321 321 321 317 317 318 319 320 318 321 319 319 322 329 330 332 334 332 332 333 334 335 335 334 336 340 340 342 343 340 338 336 336 335 335 333 332 331 330 329 328
325 324 321 321 320 318 318 318 318 316 317 319 318 321 317 321 325 329 330 331 331 331 332 333 333 333 335 334 336 339 341 340 338 336 334 335 334 332 332 330 329 328 328
325 324 322 319 320 318 318 318 318 318 317 319 323 317 316 315 319 325 326 328 329 329 331 331 330 333 333 333 335 337 339 339 337 336 334 333 332 332 331 329 328 328 327
325 325 325 323 321 320 317 318 320 319 318 319 321 323 321 322 317 316 324 325 327 328 328 330 330 331 332 332 335 337 336 337 336 335 333 333 332 331 330 328 328 327 327
324 327 325 324 322 320 318 320 320 320 319 321 320 317 318 319 322 318 316 319 324 326 328 329 329 329 330 332 334 335 335 335 334 334 333 332 331 330 329 328 328 327 326
321 323 325 323 322 321 320 320 320 321 320 321 320 322 319 317 320 319 318 318 319 322 327 327 327 328 330 330 334 334 331 330 328 329 330 331 332 330 329 328 327 327 326
322 321 323 323 322 324 322 321 321 321 321 320 319 319 319 322 321 323 321 317 316 321 324 326 327 328 330 330 333 332 331 326 324 324 325 327 329 330 330 329 327 327 325
321 321 323 324 325 325 324 322 321 321 321 320 320 319 322 321 324 324 320 318 316 318 320 323 327 329 330 330 330 330 327 324 323 321 321 322 324 326 327 327 328 327 327
325 322 323 324 325 325 324 322 321 320 320 319 318 318 320 320 319 320 321 322 319 314 315 321 323 329 330 330 330 328 325 324 323 319 319 319 320 321 322 323 323 323 323
323 322 322 323 324 324 323 322 322 323 324 323 320 319 318 317 319 320 320 322 322 319 317 323 324 327 329 330 332 328 326 324 321 321 319 318 318 318 319 319 319 320 321
323 323 323 324 323 323 324 324 323 323 322 321 320 322 320 318 319 320 321 323 323 323 319 322 326 328 327 329 330 328 326 323 322 319 319 318 316 315 316 316 316 317 318
323 323 324 324 323 323 324 324 323 323 321 320 320 321 320 320 318 320 322 322 323 323 322 320 324 325 325 325 328 328 328 325 320 320 318 317 315 314 314 314 313 313 312
322 324 324 324 325 324 325 324 323 321 321 320 321 320 320 319 318 321 321 321 323 324 323 322 320 322 323 325 324 320 317 318 320 321 316 316 315 314 313 312 311 310 308
323 324 326 327 327 326 327 326 325 323 321 320 321 322 322 322 321 321 321 320 320 321 321 319 317 315 318 317 318 317 313 312 311 315 314 313 314 314 313 311 311 311 308
324 327 327 328 328 327 327 325 324 323 322 322 322 324 324 322 321 321 322 320 320 319 318 315 312 311 311 311 313 311 310 311 313 315 309 309 308 307 308 310 313 313 309
321 324 326 327 326 326 309 313 321 324 323 323 322 323 323 321 318 315 314 315 319 318 315 312 310 309 308 310 310 310 310 309 310 314 310 311 308 307 307 306 307 305 304
315 315 316 318 321 320 305 308 312 325 323 323 323 323 324 325 321 321 310 309 309 310 313 313 311 310 309 312 311 310 310 310 309 313 312 310 310 309 310 309 306 305 303
314 313 312 312 314 317 303 305 311 325 323 323 324 324 324 322 320 319 313 315 314 316 316 316 313 313 314 314 315 314 312 310 312 308 311 309 303 303 303 301 303 302 301
313 312 311 311 308 306 302 302 315 322 321 321 323 324 323 320 310 305 315 312 309 306 303 303 306 304 303 303 310 316 311 309 304 304 304 301 300 299 300 302 303 303 301
314 314 312 311 307 304 299 303 314 321 316 316 316 318 309 316 301 302 313 311 308 306 303 301 300 299 299 300 302 305 306 301 299 298 304 300 300 299 298 304 304 301 300
Wind_Speed
5 4 4 4 4 3 3 4 4 4 5 5 5 5 5 5 6 3 3 14 15 19 24 25 26 25 23 20 18 18 18 20 19 19 17 17 17 17 17 15 15 15 15
5 5 4 5 4 4 4 4 5 4 4 3 4 5 6 5 6 5 3 5 13 17 20 22 24 25 25 21 15 18 18 20 21 19 18 17 17 17 17 15 15 16 16
7 6 4 4 5 4 5 4 4 4 4 3 5 5 4 5 5 5 4 3 8 14 17 21 23 22 24 19 18 20 21 21 20 18 18 17 17 16 16 15 16 15 15
6 5 4 4 4 4 4 4 4 3 3 4 2 4 4 5 5 5 4 4 3 6 14 19 20 23 21 22 19 20 23 21 20 18 17 18 17 15 15 16 16 16 15
5 5 4 4 4 3 3 4 2 3 3 2 3 4 4 4 5 5 6 6 5 5 3 15 18 19 22 22 21 22 23 23 20 19 18 18 18 16 15 15 16 15 14
5 4 4 4 4 4 4 3 3 2 2 4 4 4 2 3 4 5 7 6 4 8 5 5 9 12 23 21 22 24 24 23 21 20 18 16 16 15 15 15 15 14 13
6 3 3 4 4 5 5 5 3 3 1 3 4 4 3 5 6 5 5 6 6 6 7 5 5 8 11 23 22 24 23 22 22 20 17 16 15 15 14 14 14 13 11
4 3 3 5 5 4 6 5 5 3 1 2 4 3 3 2 2 3 5 5 6 6 6 4 10 8 10 6 10 21 24 21 20 20 18 16 15 15 14 14 13 12 10
3 3 4 4 5 5 5 5 5 6 4 1 5 4 3 3 4 3 6 5 7 6 6 7 8 7 9 7 11 15 17 19 19 19 19 18 16 15 14 13 12 11 10
3 3 4 5 5 4 5 5 5 4 5 5 3 3 1 5 3 4 4 5 6 7 7 6 8 9 7 7 12 13 14 16 19 18 18 18 17 15 14 12 11 9 8
3 2 3 4 5 4 5 6 6 6 3 6 3 3 3 3 2 3 4 4 5 4 5 7 8 8 8 7 5 10 11 12 14 15 14 15 15 14 12 11 10 9 7
2 1 3 4 5 5 6 5 5 7 5 5 4 7 5 4 4 4 4 4 5 2 5 7 6 7 6 5 6 13 13 12 11 11 11 11 12 12 12 10 9 8 8
1 2 2 4 3 4 6 6 6 5 6 5 6 4 2 4 4 6 5 3 3 3 2 5 6 6 6 5 6 10 13 11 11 10 9 9 9 9 9 9 9 9 8
1 0 3 4 5 5 6 6 4 4 5 5 7 4 5 3 5 7 6 8 5 3 2 5 6 6 6 6 6 10 6 10 10 10 9 8 8 9 9 9 8 7 7
1 3 4 5 5 6 7 7 4 5 6 4 5 5 5 4 5 4 4 7 6 6 2 2 4 7 7 7 7 4 5 9 10 9 8 9 9 7 7 7 8 7 8
3 3 4 5 6 6 7 7 6 7 10 5 4 7 6 4 6 5 4 3 4 5 3 3 3 9 10 8 10 6 6 8 8 9 9 7 7 8 8 9 9 8 7
3 3 4 6 5 8 7 8 8 9 10 9 6 8 7 6 6 5 4 4 5 4 6 3 4 7 5 10 7 5 4 4 4 8 9 10 9 10 9 9 10 9 9
4 4 5 6 6 6 6 11 10 8 10 9 8 9 7 6 7 6 5 6 6 4 6 10 4 3 3 4 5 6 4 4 5 8 9 11 10 10 10 11 10 10 10
3 5 5 5 7 7 7 8 10 9 10 10 8 9 9 8 7 7 7 7 5 5 5 6 4 2 2 2 3 2 2 2 2 4 8 8 10 10 12 12 11 11 11
4 4 4 4 5 8 8 10 9 9 9 9 9 8 8 9 10 9 8 7 6 5 3 3 3 3 3 3 2 2 1 0 2 2 5 7 7 10 12 12 13 13 14
3 5 5 5 6 7 7 10 8 8 8 9 7 8 7 9 12 9 5 4 4 3 3 3 2 2 2 2 3 1 2 1 2 4 2 4 2 3 5 8 13 13 12
6 5 5 5 5 4 12 13 9 9 7 8 9 8 9 12 8 8 4 4 6 6 5 4 3 3 2 3 3 4 3 2 2 1 1 4 2 3 4 3 4 6 6
6 6 5 6 6 5 10 12 11 8 8 8 8 10 9 6 6 4 3 5 10 10 8 7 6 5 4 6 6 3 4 3 2 3 2 2 2 1 2 4 11 10 8
6 6 6 5 5 4 7 9 9 6 8 8 9 10 9 6 5 5 2 4 6 5 4 4 6 6 4 5 5 5 5 2 3 2 3 2 4 3 3 3 7 8 6
5 4 5 6 6 3 7 8 7 6 6 8 8 7 6 6 7 7 6 6 6 4 6 7 7 9 7 4 5 5 3 3 2 2 4 3 2 2 1 2 1 4 8
6 5 5 5 7 6 7 9 8 6 5 4 4 5 8 7 8 10 7 7 7 4 5 4 4 7 6 8 10 3 5 4 4 2 3 3 2 2 4 1 2 4 6
Wind_Direction
218 209 227 232 232 236 220 208 199 185 187 189 191 202 217 215 225 218 197 204 191 184 177 172 172 163 163 170 167 171 182 169 148 134 128 123 127 123 119 125 122 117 107
213 210 217 234 239 217 210 200 190 180 197 171 202 214 229 211 214 203 193 186 176 181 184 182 173 169 170 175 165 175 173 161 141 132 128 130 126 125 126 127 124 116 112
206 202 210 232 234 220 208 185 180 157 180 175 212 218 224 216 185 165 168 151 172 176 176 178 176 173 169 162 172 176 168 148 134 134 130 127 124 127 126 130 120 117 115
209 201 215 231 236 206 178 167 163 167 190 187 183 217 204 171 162 144 148 124 142 144 172 175 177 171 166 156 170 169 158 137 132 133 131 126 127 125 135 128 125 121 115
224 206 213 239 222 167 157 152 142 148 174 184 197 185 186 144 143 142 143 156 158 123 131 175 177 170 159 156 167 172 154 137 135 135 133 130 130 139 135 131 128 122 122
237 206 207 214 182 142 141 147 148 134 152 179 172 126 126 132 128 131 158 132 130 131 116 147 160 154 156 166 180 163 162 135 137 137 128 130 133 141 138 134 128 131 137
240 227 203 191 169 160 173 171 121 121 152 167 106 88 52 78 109 155 137 138 137 128 114 127 152 161 169 179 173 163 142 141 142 134 132 133 141 143 138 136 141 141 136
216 233 197 179 170 151 176 153 136 124 100 172 129 106 124 77 113 88 116 129 111 119 123 121 134 147 139 147 165 159 146 141 137 136 137 140 142 143 145 149 147 142 144
228 242 189 164 168 159 168 150 155 143 120 352 140 137 121 172 123 144 124 115 126 122 114 124 125 127 121 126 136 146 138 137 142 144 149 142 149 151 157 158 152 158 162
236 178 179 170 177 167 162 158 154 136 123 145 42 1 191 102 140 156 121 108 118 122 124 135 141 125 115 120 135 145 146 143 149 156 155 147 155 158 163 161 162 169 181
301 265 184 170 155 171 159 145 141 133 119 152 152 145 76 93 119 97 116 128 86 104 122 125 131 117 108 118 127 147 141 139 150 158 152 153 156 163 168 169 173 188 203
311 185 164 152 158 150 151 153 140 143 148 128 150 148 152 147 151 140 117 127 114 90 127 115 112 117 113 108 138 150 146 147 147 144 150 157 163 173 175 178 190 205 216
292 20 142 149 165 150 142 135 135 141 145 142 151 154 109 132 123 116 129 110 123 113 115 111 120 123 118 116 140 152 140 143 147 149 158 161 168 181 182 190 204 218 227
47 117 166 162 155 143 134 130 132 133 129 128 134 124 121 110 136 144 143 145 117 77 60 119 134 140 130 130 146 140 145 149 166 166 166 172 182 191 196 201 216 225 236
20 87 113 148 144 143 136 130 115 114 108 111 110 107 115 110 101 95 121 153 143 144 135 156 134 152 142 137 156 134 151 177 180 171 173 185 196 197 201 214 222 225 228
35 82 101 113 123 124 118 113 109 114 117 100 101 110 103 104 105 108 121 118 99 125 125 99 74 145 151 152 163 161 189 177 182 181 183 191 204 212 218 221 225 233 235
68 88 79 97 107 121 114 105 109 118 125 119 105 121 108 112 116 115 103 96 100 101 121 91 100 124 126 144 162 171 167 172 192 192 195 202 210 217 222 230 233 234 238
50 72 82 88 87 92 115 123 119 110 117 122 116 122 116 108 99 93 92 96 91 74 119 126 115 112 116 155 159 166 176 180 194 203 205 214 219 227 228 235 239 239 239
82 64 86 95 102 105 104 104 112 115 118 130 126 130 125 118 105 109 95 100 93 95 81 117 111 92 89 145 117 119 185 211 219 220 224 231 230 232 232 236 242 246 245
101 74 72 77 111 105 113 121 115 112 110 128 131 132 127 120 118 116 102 104 98 90 88 88 87 94 111 89 96 141 219 230 253 240 231 223 219 234 240 243 245 246 246
132 133 95 63 54 93 110 118 120 113 114 107 104 111 101 102 98 98 111 99 102 100 110 111 95 80 92 102 164 162 169 151 264 213 243 246 229 259 266 250 257 265 278
112 105 98 113 88 96 125 120 121 129 126 115 119 107 120 116 118 114 84 199 182 167 157 137 127 154 180 138 151 186 156 117 283 149 144 309 124 284 284 286 307 280 287
108 101 108 119 105 113 128 128 130 138 137 135 134 137 142 153 146 150 244 277 211 184 181 152 164 183 174 192 158 166 162 162 221 346 107 290 31 330 330 45 45 28 352
123 117 110 114 118 126 135 135 125 111 132 132 144 163 163 166 156 166 162 67 96 109 170 179 169 172 183 183 180 175 165 161 62 17 23 93 344 14 33 44 60 59 19
122 132 133 128 124 124 190 155 127 116 125 134 145 159 145 160 191 178 137 123 96 65 30 61 125 140 132 142 113 99 106 110 54 0 350 110 341 311 215 256 292 17 351
139 137 136 145 129 107 125 162 145 135 124 112 109 166 179 177 169 177 159 156 131 173 151 111 68 58 63 54 50 90 150 145 155 71 323 91 322 2 360 237 340 8 6